{"data":{"norad_id":67939,"epoch":"2026-09-19T10:55:43.025376Z","epoch_age_seconds":153365,"freshness":"FRESH","line1":"1 67939U 26037H   26262.45535909  .00012192  00000+0  45159-3 0  9991","line2":"2 67939  42.9972 176.5336 0000861 357.8057   2.2790 15.27597955 32976","mean_motion":15.27597955,"eccentricity":8.61e-5,"inclination_deg":42.9972,"raan_deg":176.5336,"arg_perigee_deg":357.8057,"mean_anomaly_deg":2.279,"bstar":0.00045159,"rev_number":3297,"period_min":94.265640726129,"perigee_km":482.40458934312,"apogee_km":483.58607633084,"semimajor_km":6861.132332837,"source":"CELESTRAK","updated_at":"2026-09-20T09:00:43.708019Z"}}